#timestamp,LO_Frequency,Hit,StdDev 
1506052815.0,286047001.0,N
1506052815.9,286047001.0,N
1506052835.7,286046994.9,N
1506052855.6,286046996.3,N
1506052875.4,286046995.0,N
1506052895.2,286046995.4,N
1506052915.1,286047002.5,N
1506052916.0,286047002.5,N
1506052935.8,286047003.8,N
1506052955.6,286047000.9,N
1506052975.5,286046998.1,N
1506052995.3,286046997.2,N
1506053015.1,286046999.3,N
1506053035.9,286047000.1,N
1506053055.7,286046999.8,N
1506053075.5,286047001.4,N
1506053095.4,286047002.0,N
1506053115.2,286047002.4,N
1506053135.0,286047000.5,N
1506053135.9,286047000.5,N
1506053155.8,286046999.1,N
1506053175.6,286047000.9,N
1506053195.4,286046998.5,N
1506053215.2,286046999.7,N
1506053235.1,286047001.1,N
1506053236.0,286047001.1,N
1506053255.8,286047000.8,N
1506053275.6,286046999.9,N
1506053295.5,286047003.6,N
1506053315.3,286047006.3,N
1506053335.1,286047008.6,Y
1506053355.9,286047008.6,P
1506053375.7,286047010.5,N
1506053395.5,286047010.2,N
1506053415.4,286047008.3,N
1506053435.2,286047006.2,N
1506053455.0,286047004.7,N
1506053455.9,286047004.7,N
1506053475.8,286047008.5,N
1506053495.6,286047007.3,N
1506053515.4,286047006.2,N
1506053535.3,286047006.9,N
1506053555.1,286047004.8,N
1506053556.0,286047004.8,N
1506053575.8,286047005.2,N
1506053595.7,286047005.9,N
1506053615.5,286047005.2,N
1506053635.3,286047007.3,Y
1506053655.2,286046999.2,P
1506053675.9,286046996.5,N
1506053695.7,286046993.4,N
1506053715.6,286046999.2,N
1506053735.4,286046999.6,N
1506053755.2,286046999.5,N
1506053775.0,286046998.5,N
1506053775.9,286046998.5,N
1506053795.8,286047000.2,N
1506053815.6,286046994.8,N
1506053835.4,286046995.7,N
1506053855.3,286046997.3,N
1506053875.1,286047001.0,N
1506053895.8,286047002.5,N
1506053915.7,286047000.8,N
1506053935.5,286046997.7,N
1506053955.3,286046998.0,N
1506053975.2,286046996.8,N
1506053995.9,286046997.8,N
1506054015.7,286046998.9,N
1506054035.5,286046995.4,N
1506054055.4,286046997.1,N
1506054075.2,286046997.9,N
1506054095.0,286046997.8,N
1506054095.9,286046997.8,N
1506054115.8,286046995.2,N
1506054135.6,286046995.3,N
1506054155.4,286046997.5,N
1506054175.3,286046996.6,N
1506054195.1,286047000.0,N
1506054196.0,286047000.0,N
1506054215.8,286047000.9,N
1506054235.7,286047002.4,N
1506054255.5,286046998.9,N
1506054275.3,286047000.9,N
1506054295.2,286047000.6,N
1506054315.9,286046999.0,N
1506054335.7,286046995.0,N
1506054355.6,286046997.5,N
1506054375.4,286046997.7,N
1506054395.2,286046995.8,N
1506054415.0,286046998.0,N
1506054416.0,286046998.0,N
1506054435.8,286046999.3,N
1506054455.6,286046998.4,N
1506054475.4,286047000.8,N
1506054495.3,286046998.3,N
1506054515.1,286046995.7,N
1506054535.8,286046997.4,N
1506054555.7,286046996.8,N
1506054575.5,286047001.2,N
1506054595.3,286047000.6,N
1506054615.2,286046999.4,N
1506054635.9,286046997.4,N
1506054655.7,286046996.0,N
1506054675.6,286046996.1,N
1506054695.4,286046997.9,N
1506054715.2,286046994.9,N
1506054735.0,286046996.1,N
1506054735.9,286046996.1,N
1506054755.8,286046999.1,N
1506054775.6,286047002.2,N
1506054795.4,286047003.3,N
1506054815.3,286047004.3,N
1506054835.1,286047000.2,N
1506054855.8,286046999.1,N
1506054875.7,286047001.2,N
1506054895.5,286047000.4,N
1506054915.3,286046999.5,N
1506054935.2,286046995.0,N
1506054955.9,286046997.5,N
1506054975.7,286046995.2,N
1506054995.6,286046997.7,N
1506055015.4,286046994.4,N
1506055035.2,286046991.6,Y
1506055055.1,286046991.8,P
1506055056.0,286046991.8,N
1506055075.8,286046996.4,N
1506055095.6,286046995.2,N
1506055115.5,286046995.7,N
1506055135.3,286046994.5,N
1506055155.1,286046996.3,N
1506055175.8,286046996.1,N
1506055195.7,286046994.8,N
1506055215.5,286046992.6,Y
1506055235.4,286046997.0,P
1506055255.2,286046996.8,P
1506055275.0,286046999.1,N
1506055275.9,286046999.1,N
1506055295.7,286047000.8,N
1506055315.6,286047002.6,N
1506055335.4,286047003.8,N
1506055355.2,286047004.7,N
1506055375.1,286047008.8,N
1506055376.0,286047008.8,N
1506055395.8,286047006.4,N
1506055415.6,286047006.1,N
1506055435.5,286047005.8,N
1506055455.3,286047003.1,N
1506055475.1,286047005.6,N
1506055495.9,286047004.8,N
1506055515.7,286047004.8,N
1506055535.5,286047005.2,N
1506055555.4,286047003.5,N
1506055575.2,286047005.4,N
1506055595.0,286047006.6,N
1506055595.9,286047006.6,N
1506055615.8,286047004.6,N
1506055635.6,286047004.7,N
1506055655.4,286047003.7,N
1506055675.2,286047001.7,N
1506055695.1,286047003.0,N
1506055696.0,286047003.0,N
1506055715.8,286047005.1,N
1506055735.6,286047001.4,N
1506055755.5,286047001.1,N
1506055775.3,286047002.1,N
1506055795.1,286047001.2,N
1506055815.9,286046999.5,N
1506055835.7,286046997.1,N
1506055855.5,286047000.6,N
1506055875.4,286047002.4,N
1506055895.2,286047001.8,N
1506055915.0,286047000.6,N
1506055915.9,286047000.6,N
1506055935.8,286046997.3,N
1506055955.6,286046994.2,N
1506055975.4,286046993.4,N
1506055995.3,286046995.2,N
1506056015.1,286046991.8,N
1506056016.0,286046991.8,N
1506056035.8,286046991.4,N
1506056055.6,286046989.0,N
1506056075.5,286046989.5,N
1506056095.3,286046988.4,N
1506056115.1,286046985.4,N
1506056135.9,286046987.1,N
1506056155.7,286046985.6,N
1506056175.5,286046984.0,N
1506056195.4,286046982.3,N
1506056215.2,286046983.6,N
1506056235.0,286046977.9,Y
1506056235.9,286046977.9,P
1506056255.8,286046985.2,N
1506056275.6,286046986.8,N
1506056295.4,286046984.2,N
1506056315.3,286046988.4,N
1506056335.1,286046988.4,N
1506056336.0,286046988.4,N
1506056355.8,286046989.5,N
1506056375.7,286046990.6,N
1506056395.5,286046995.9,N
